Weather History for KLGB - October, 2013

Change the Weather History Date:

Monday, October 21, 2013

  Actual Average Record
Temperature  
Mean Temperature 66 °F 67 °F  
Max Temperature 74 °F 77 °F 99 °F (1965)
Min Temperature 58 °F 57 °F 49 °F (1962)
Degree Days  
Heating Degree Days 0 1  
Month to date heating degree days 11 5  
Since 1 July heating degree days 11 6  
Cooling Degree Days 1 3  
Month to date cooling degree days 90 82  
Year to date cooling degree days 1184 1081  
Growing Degree Days 15 (Base 50)    
Moisture  
Dew Point 54 °F    
Average Humidity 67    
Maximum Humidity 84    
Minimum Humidity 49    
Precipitation  
Precipitation 0.00 in 0.03 in 0.12 in (1992)
Month to date precipitation 0.09 0.37  
Year to date precipitation 3.03 9.05  
Since 1 July precipitation 0.16 0.61  
Sea Level Pressure  
Sea Level Pressure 29.95 in    
Wind  
Wind Speed 4 mph (NW)    
Max Wind Speed 10 mph    
Max Gust Speed 16 mph    
Visibility 5 miles    
Events      
T = Trace of Precipitation, MM = Missing Value Source: NWS Daily Summary

Daily Weather History Graph

Daily Weather History Graph

Search for Another Location

Airport or City:

Trip Planner

Search our weather history database for the weather conditions in past years. The results will help you decide how hot, cold, wet, or windy it might be!

Date:

Astronomy

Oct. 21, 2013 Rise Set
Actual Time 7:02 AM PDT 6:11 PM PDT
Civil Twilight 6:37 AM PDT 6:36 PM PDT
Nautical Twilight 6:08 AM PDT 7:05 PM PDT
Astronomical Twilight 5:39 AM PDT 7:34 PM PDT
Moon 8:14 PM PDT (10/21) 9:35 AM PDT (10/21)
Length of Visible Light 11h 59m
Length of Day
11h 08m
Waning Gibbous, 92% of the Moon is Illuminated
Oct 21
Waning Gibbous
Oct 26
Last Quarter
Nov 3
New
Nov 9
First Quarter
Nov 17
Full

Hourly Weather History & Observations

Time (PDT) Temp. Dew Point Humidity Pressure Visibility Wind Dir Wind Speed Gust Speed Precip Events Conditions
12:21 AM 59.0 °F 53.6 °F 82% 29.94 in 4.0 mi North 3.5 mph - N/A   Haze
12:35 AM 59.0 °F 53.6 °F 82% 29.94 in 4.0 mi Calm Calm - N/A   Haze
12:53 AM 59.0 °F 54.0 °F 83% 29.94 in 4.0 mi Calm Calm - N/A   Haze
1:53 AM 59.0 °F 53.1 °F 81% 29.96 in 3.0 mi Calm Calm - N/A   Haze
2:53 AM 60.1 °F 55.0 °F 83% 29.95 in 3.0 mi Calm Calm - N/A   Haze
3:53 AM 59.0 °F 54.0 °F 83% 29.95 in 4.0 mi Calm Calm - N/A   Haze
4:53 AM 59.0 °F 54.0 °F 83% 29.94 in 3.0 mi Calm Calm - N/A   Haze
5:53 AM 59.0 °F 54.0 °F 83% 29.95 in 3.0 mi East 4.6 mph - N/A   Haze
6:08 AM 59.0 °F 53.6 °F 82% 29.95 in 2.0 mi NE 3.5 mph - N/A   Overcast
6:53 AM 59.0 °F 54.0 °F 83% 29.96 in 3.0 mi NE 4.6 mph - N/A   Haze
7:05 AM 59.0 °F 53.6 °F 82% 29.96 in 2.0 mi Calm Calm - N/A   Overcast
7:53 AM 59.0 °F 54.0 °F 83% 29.97 in 2.0 mi Calm Calm - N/A   Overcast
8:53 AM 61.0 °F 53.1 °F 75% 29.98 in 3.0 mi Calm Calm - N/A   Haze
8:55 AM 60.8 °F 53.6 °F 77% 29.98 in 2.5 mi Calm Calm - N/A   Haze
9:53 AM 64.0 °F 53.1 °F 67% 29.99 in 2.5 mi Calm Calm - N/A   Overcast
10:00 AM 62.6 °F 53.6 °F 72% 29.99 in 3.0 mi Calm Calm - N/A   Haze
10:08 AM 62.6 °F 53.6 °F 72% 29.99 in 3.0 mi Calm Calm - N/A   Haze
10:53 AM 66.0 °F 52.0 °F 60% 29.98 in 4.0 mi Calm Calm - N/A   Haze
11:53 AM 68.0 °F 53.1 °F 59% 29.97 in 3.0 mi South 5.8 mph - N/A   Haze
12:53 PM 70.0 °F 53.1 °F 55% 29.95 in 5.0 mi South 5.8 mph - N/A   Haze
1:53 PM 70.0 °F 53.1 °F 55% 29.93 in 5.0 mi South 6.9 mph - N/A   Haze
2:53 PM 71.1 °F 52.0 °F 51% 29.91 in 7.0 mi Variable 6.9 mph - N/A   Clear
3:53 PM 72.0 °F 52.0 °F 49% 29.91 in 9.0 mi SSE 5.8 mph - N/A   Clear
4:53 PM 72.0 °F 54.0 °F 53% 29.90 in 9.0 mi WNW 9.2 mph - N/A   Clear
5:53 PM 66.9 °F 54.0 °F 63% 29.91 in 9.0 mi WNW 8.1 mph - N/A   Clear
6:53 PM 64.0 °F 54.0 °F 70% 29.92 in 10.0 mi NW 6.9 mph - N/A   Clear
7:53 PM 63.0 °F 54.0 °F 72% 29.95 in 10.0 mi NW 5.8 mph - N/A   Clear
8:53 PM 62.1 °F 54.0 °F 75% 29.96 in 10.0 mi NW 5.8 mph - N/A   Clear
9:53 PM 61.0 °F 54.0 °F 78% 29.97 in 8.0 mi North 3.5 mph - N/A   Clear
10:53 PM 61.0 °F 54.0 °F 78% 29.99 in 8.0 mi NW 3.5 mph - N/A   Clear
11:53 PM 60.1 °F 54.0 °F 80% 29.99 in 7.0 mi Calm Calm - N/A   Clear